Location: Aytr�
(46.1357°N, 1.1145°W)
Time: 01:13:36
(UTC+00:00)

ISS - Pass Details

Date: 19 September 2021
Orbit: 417 x 423 km, 51.6° (Epoch: 27 October)

Event Time Altitude Azimuth Distance (km) Brightness Sun altitude
Rises 21:10:50 0° 277° (W) 2,365 0.9 -30.1°
Reaches altitude 10° 21:13:04 10° 288° (WNW) 1,503 -0.2 -30.4°
Enters shadow 21:13:32 13° 292° (WNW) 1,333 -0.5 -30.5°
